Location: Banksville Park
(38.5557°N, 75.1182°W)
Time: 17:23:22
(UTC+00:00)

USA 267 - Pass Details

Date: 19 September 2020
Orbit: 1101 x 1106 km, 123.0° (Epoch: 22 September)

Event Time Altitude Azimuth Distance (km) Brightness Sun altitude
Rises 07:55:29 0° 41° (NE) 3,923 7.2 -32.4°
Reaches altitude 10° 07:58:04 10° 36° (NE) 2,964 6.3 -32.0°
Maximum altitude 08:04:14 46° 326° (NW) 1,438 3.7 -31.0°
Enters shadow 08:04:18 46° 324° (NW) 1,438 3.7 -30.9°
